period_start,C,m1,H,J0,J1,J2,J3,J4,J5,JA,JB,JC,JD,JJ,JK,JN,#
2014-09-20 00:04:38,0.01,0.01,0.00,22.82,26.37,29.16,9.56,40.29,1009.78,2042.01,3441.87,3339.99,3629.77,500.14,493.71,0.52,0000 0000 0000 0000 000000
2014-09-20 00:09:39,0.02,0.01,0.00,22.86,26.37,29.17,9.51,40.25,1009.78,2042.01,3441.28,3339.98,3629.29,499.88,493.46,0.56,0000 0000 0000 0000 000000
2014-09-20 00:14:40,0.00,0.01,0.00,22.90,26.37,29.17,9.51,40.33,1009.78,2042.03,3441.01,3339.98,3629.03,500.13,493.68,0.61,0000 0000 0000 0000 000000
2014-09-20 00:19:41,0.00,0.01,0.00,22.84,26.37,29.18,9.48,40.33,1009.78,2042.03,3440.99,3339.98,3629.00,499.89,493.50,0.65,0000 0000 0000 0000 000000
2014-09-20 00:24:41,0.01,0.01,0.00,22.89,26.37,29.16,9.50,40.26,1009.78,2042.06,3440.95,3339.98,3628.99,499.97,493.60,0.69,0000 0000 0000 0000 000000
2014-09-20 00:29:42,0.01,0.01,0.00,22.93,26.37,29.17,9.47,40.38,1009.78,2042.06,3440.40,3339.91,3628.96,499.66,493.10,0.73,0000 0000 0000 0000 000000
2014-09-20 00:34:43,0.03,0.01,0.00,22.93,26.37,29.12,9.47,40.33,1009.76,2042.06,3440.05,3339.59,3628.39,499.99,493.50,0.77,0000 0000 0000 0000 000000
2014-09-20 00:39:44,0.01,0.01,0.00,22.93,26.37,29.06,9.50,40.27,1009.58,2042.11,3440.00,3339.43,3628.05,499.98,493.42,0.81,0000 0000 0000 0000 000000
2014-09-20 00:44:45,0.01,0.01,0.00,22.92,26.37,29.09,9.46,40.10,1009.40,2042.11,3439.89,3339.15,3628.00,500.10,493.28,0.86,0000 0000 0000 0000 000000
2014-09-20 00:49:46,0.01,0.01,0.00,22.86,26.37,29.17,9.43,40.17,1009.32,2042.11,3439.25,3339.03,3627.99,499.36,492.82,0.90,0000 0000 0000 0000 000000
2014-09-20 00:54:47,0.00,0.01,0.00,22.79,26.37,29.18,9.47,40.31,1009.33,2042.11,3439.02,3339.01,3627.83,499.72,493.21,0.94,0000 0000 0000 0000 000000
2014-09-20 00:59:48,0.01,0.01,0.00,22.80,26.37,29.16,9.57,40.40,1009.38,2042.07,3438.99,3339.00,3627.20,500.48,493.91,0.98,0000 0000 0000 0000 000000
2014-09-20 01:04:50,0.01,0.01,0.00,22.87,26.37,29.18,9.46,40.32,1009.40,2042.13,3438.98,3339.00,3627.01,499.87,493.36,1.02,0000 0000 0000 0000 000000
2014-09-20 01:09:50,0.00,0.01,0.00,22.90,26.37,29.15,9.52,40.29,1009.34,2042.17,3438.78,3339.00,3627.00,499.90,493.23,1.07,0000 0000 0000 0000 000000
2014-09-20 01:14:52,0.02,0.01,0.00,22.78,26.37,29.12,9.51,40.23,1009.31,2042.32,3438.39,3338.99,3627.00,500.26,493.67,1.11,0000 0000 0000 0000 000000
2014-09-20 01:19:53,-0.00,0.01,0.00,22.69,26.39,29.10,9.55,40.33,1009.30,2042.24,3438.05,3338.96,3626.74,499.82,493.49,1.15,0000 0000 0000 0000 000000
2014-09-20 01:24:54,0.02,0.01,0.00,22.62,26.40,29.06,9.50,40.40,1009.31,2042.17,3437.99,3338.69,3626.09,500.00,493.72,1.19,0000 0000 0000 0000 000000
2014-09-20 01:29:55,0.01,0.01,0.00,22.55,26.40,29.02,9.47,40.31,1009.45,2042.05,3437.57,3338.08,3626.00,499.48,493.60,1.23,0000 0000 0000 0000 000000
2014-09-20 01:34:56,0.01,0.01,0.00,22.51,26.42,29.00,9.53,40.38,1009.77,2042.03,3437.03,3338.00,3625.77,499.92,494.32,1.27,0000 0000 0000 0000 000000
2014-09-20 01:39:57,0.01,0.02,0.00,22.51,26.43,29.00,9.51,40.43,1009.75,2042.02,3436.99,3338.00,3625.09,500.12,494.15,1.32,0000 0000 0000 0000 000000
2014-09-20 01:44:59,0.03,0.02,0.00,22.49,26.45,28.99,9.54,40.54,1009.78,2042.00,3436.33,3337.61,3624.97,499.81,494.07,1.36,0000 0000 0000 0000 000000
2014-09-20 01:50:00,0.02,0.02,0.00,22.59,26.47,29.00,9.54,40.41,1009.78,2042.00,3436.01,3337.05,3624.34,500.14,494.05,1.40,0000 0000 0000 0000 000000
2014-09-20 01:55:01,0.00,0.02,0.00,22.65,26.48,29.03,9.52,40.31,1009.78,2042.00,3435.92,3337.00,3624.01,499.96,493.90,1.44,0000 0000 0000 0000 000000
2014-09-20 02:00:02,0.01,0.02,0.00,22.75,26.50,29.05,9.42,40.30,1009.78,2042.00,3435.31,3336.98,3623.97,499.52,493.45,1.48,0000 0000 0000 0000 000000
2014-09-20 02:05:03,0.01,0.02,0.00,22.84,26.52,29.07,9.64,40.33,1009.78,2041.99,3435.03,3336.98,3623.69,500.42,494.09,1.53,0000 0000 0000 0000 000000
2014-09-20 02:10:04,0.01,0.02,0.00,22.91,26.53,29.08,9.51,40.36,1009.78,2041.98,3434.98,3336.77,3623.07,500.46,493.94,1.57,0000 0000 0000 0000 000000
2014-09-20 02:15:05,0.03,0.02,0.00,22.97,26.55,29.10,9.50,40.20,1009.69,2041.98,3434.42,3336.18,3623.00,500.16,493.72,1.61,0000 0000 0000 0000 000000
2014-09-20 02:20:06,0.00,0.02,0.00,22.92,26.55,29.14,9.49,40.30,1009.52,2041.96,3434.02,3336.03,3622.92,499.80,493.14,1.65,0000 0000 0000 0000 000000
2014-09-20 02:25:07,0.00,0.02,0.00,22.78,26.55,29.20,9.49,40.55,1009.77,2041.94,3433.99,3336.01,3622.80,500.16,493.92,1.69,0000 0000 0000 0000 000000
2014-09-20 02:30:08,0.01,0.02,0.00,22.75,26.56,29.21,9.55,40.36,1009.77,2041.93,3433.88,3336.00,3622.09,500.05,493.76,1.73,0000 0000 0000 0000 000000
2014-09-20 02:35:09,0.01,0.02,0.00,22.77,26.57,29.23,9.47,40.40,1009.78,2041.93,3433.59,3336.00,3622.01,499.97,493.79,1.78,0000 0000 0000 0000 000000
2014-09-20 02:40:10,-0.00,0.02,0.00,22.79,26.57,29.21,9.57,40.29,1009.66,2041.95,3433.30,3335.99,3622.00,500.00,493.73,1.82,0000 0000 0000 0000 000000
2014-09-20 02:45:11,-0.01,0.02,0.00,22.79,26.57,29.16,9.56,40.23,1009.74,2041.87,3433.03,3335.95,3621.93,500.06,493.77,1.86,0000 0000 0000 0000 000000
2014-09-20 02:50:12,0.02,0.02,0.00,22.77,26.57,29.15,9.53,40.20,1009.71,2041.84,3432.98,3335.76,3621.50,499.96,493.67,1.90,0000 0000 0000 0000 000000
2014-09-20 02:55:12,0.02,0.02,0.00,22.81,26.57,29.17,9.49,40.18,1009.76,2041.84,3432.78,3335.24,3621.05,500.08,493.77,1.94,0000 0000 0000 0000 000000
2014-09-20 03:00:13,-0.00,0.02,0.00,22.93,26.59,29.15,9.57,40.28,1009.71,2041.69,3432.15,3335.05,3621.01,500.36,493.93,1.99,0000 0000 0000 0000 000000
2014-09-20 03:05:14,0.01,0.02,0.00,22.97,26.59,29.16,9.48,40.14,1009.68,2041.63,3431.99,3335.00,3620.93,500.17,493.50,2.03,0000 0000 0000 0000 000000
2014-09-20 03:10:15,0.03,0.02,0.00,22.92,26.59,29.19,9.51,40.15,1009.72,2041.65,3431.73,3335.00,3620.43,499.96,493.47,2.07,0000 0000 0000 0000 000000
2014-09-20 03:15:16,-0.01,0.03,0.00,22.86,26.57,29.26,9.50,40.23,1009.76,2041.60,3431.11,3334.97,3620.04,500.29,493.85,2.11,0000 0000 0000 0000 000000
2014-09-20 03:20:18,0.01,0.03,0.00,22.91,26.57,29.40,9.49,40.15,1009.62,2041.61,3431.01,3334.98,3620.00,499.56,492.94,2.15,0000 0000 0000 0000 000000
2014-09-20 03:25:19,0.00,0.03,0.00,22.91,26.57,29.46,9.48,39.98,1009.65,2041.64,3430.99,3334.96,3620.00,500.01,493.34,2.19,0000 0000 0000 0000 000000
2014-09-20 03:30:20,0.01,0.03,0.00,22.94,26.57,29.47,9.50,40.08,1009.64,2041.67,3430.95,3334.94,3620.00,499.98,493.36,2.24,0000 0000 0000 0000 000000
2014-09-20 03:35:21,0.01,0.03,0.00,22.97,26.55,29.43,9.47,39.99,1009.56,2041.78,3430.71,3334.89,3619.98,499.69,492.96,2.28,0000 0000 0000 0000 000000
2014-09-20 03:40:22,0.02,0.03,0.00,22.85,26.55,29.39,9.49,40.07,1009.51,2041.77,3430.13,3334.58,3619.87,500.25,493.76,2.32,0000 0000 0000 0000 000000
2014-09-20 03:45:23,0.02,0.03,0.00,22.74,26.54,29.35,9.58,40.14,1009.33,2041.83,3430.01,3334.27,3619.48,500.03,493.65,2.36,0000 0000 0000 0000 000000
2014-09-20 03:50:25,0.00,0.03,0.00,22.78,26.52,29.33,9.46,40.08,1009.30,2041.86,3430.00,3334.26,3619.14,499.63,493.15,2.40,0000 0000 0000 0000 000000
2014-09-20 03:55:26,0.00,0.03,0.00,22.77,26.52,29.32,9.51,40.05,1009.29,2041.97,3430.00,3334.55,3619.13,499.63,493.11,2.45,0000 0000 0000 0000 000000
2014-09-20 04:00:27,0.01,0.03,0.00,22.67,26.50,29.32,9.49,40.03,1009.29,2041.96,3429.99,3334.35,3619.06,500.11,493.90,2.49,0000 0000 0000 0000 000000
2014-09-20 04:05:28,-0.01,0.03,0.00,22.64,26.50,29.29,9.45,40.03,1009.29,2041.97,3429.98,3334.60,3619.09,499.68,493.49,2.53,0000 0000 0000 0000 000000
2014-09-20 04:10:29,0.00,0.03,0.00,22.63,26.50,29.30,9.57,40.18,1009.28,2041.98,3429.95,3334.53,3619.01,499.84,493.88,2.57,0000 0000 0000 0000 000000
2014-09-20 04:15:31,-0.00,0.03,0.00,22.60,26.48,29.29,9.56,40.04,1009.25,2041.98,3429.85,3334.55,3619.00,500.04,493.71,2.61,0000 0000 0000 0000 000000
2014-09-20 04:20:32,0.03,0.03,0.00,22.61,26.47,29.25,9.54,39.94,1009.19,2041.99,3429.23,3334.16,3619.00,500.07,493.76,2.66,0000 0000 0000 0000 000000
2014-09-20 04:25:33,0.00,0.03,0.00,22.60,26.47,29.27,9.50,39.91,1009.01,2041.98,3429.04,3334.05,3618.98,499.58,493.34,2.70,0000 0000 0000 0000 000000
2014-09-20 04:30:34,0.00,0.03,0.00,22.62,26.47,29.26,9.59,39.95,1008.93,2041.98,3429.00,3334.02,3618.98,500.08,493.58,2.74,0000 0000 0000 0000 000000
2014-09-20 04:35:35,0.00,0.03,0.00,22.61,26.47,29.26,9.53,39.83,1008.83,2041.97,3428.99,3334.00,3618.72,500.29,493.91,2.78,0000 0000 0000 0000 000000
2014-09-20 04:40:36,0.01,0.03,0.00,22.65,26.47,29.26,9.52,39.90,1008.81,2041.97,3428.98,3334.00,3618.25,499.66,493.13,2.82,0000 0000 0000 0000 000000
2014-09-20 04:45:37,0.00,0.03,0.00,22.59,26.47,29.27,9.50,39.89,1008.80,2041.98,3428.83,3334.00,3618.04,500.12,493.66,2.86,0000 0000 0000 0000 000000
2014-09-20 04:50:38,0.01,0.03,0.00,22.60,26.48,29.24,9.45,39.88,1008.80,2041.98,3428.34,3334.00,3618.00,499.61,493.23,2.91,0000 0000 0000 0000 000000
2014-09-20 04:55:39,-0.00,0.03,0.00,22.71,26.47,29.27,9.52,39.92,1008.80,2041.95,3428.04,3333.99,3618.00,499.58,492.96,2.95,0000 0000 0000 0000 000000
2014-09-20 05:00:40,0.00,0.03,0.00,22.75,26.47,29.30,9.59,39.86,1008.79,2041.97,3428.00,3333.99,3617.99,500.26,493.57,2.99,0000 0000 0000 0000 000000
2014-09-20 05:05:41,0.00,0.03,0.00,22.69,26.47,29.31,9.53,39.92,1008.59,2041.97,3427.97,3333.98,3617.97,499.88,493.24,3.03,0000 0000 0000 0000 000000
2014-09-20 05:10:42,0.00,0.03,0.00,22.66,26.47,29.30,9.54,39.87,1008.35,2041.98,3427.96,3333.97,3617.91,499.85,493.11,3.07,0000 0000 0000 0000 000000
2014-09-20 05:15:43,0.00,0.03,0.00,22.68,26.47,29.26,9.53,39.86,1008.33,2041.98,3427.87,3333.98,3617.84,500.01,493.33,3.11,0000 0000 0000 0000 000000
2014-09-20 05:20:44,0.01,0.03,0.00,22.79,26.47,29.28,9.52,39.87,1008.33,2041.99,3427.46,3333.98,3617.65,499.79,492.54,3.16,0000 0000 0000 0000 000000
2014-09-20 05:25:45,0.02,0.03,0.00,22.79,26.47,29.29,9.49,39.89,1008.34,2041.99,3427.05,3333.84,3617.18,499.72,492.88,3.20,0000 0000 0000 0000 000000
2014-09-20 05:30:46,-0.00,0.03,0.00,22.74,26.46,29.29,9.52,39.76,1008.33,2041.99,3427.00,3333.79,3617.01,500.19,493.28,3.24,0000 0000 0000 0000 000000
2014-09-20 05:35:47,0.01,0.03,0.00,22.73,26.45,29.29,9.50,39.75,1008.32,2041.99,3426.99,3333.62,3617.00,500.18,493.20,3.28,0000 0000 0000 0000 000000
2014-09-20 05:40:48,0.01,0.03,0.00,22.70,26.45,29.25,9.51,39.70,1008.32,2041.99,3426.99,3333.41,3617.00,500.14,493.37,3.32,0000 0000 0000 0000 000000
2014-09-20 05:45:49,0.01,0.03,0.00,22.64,26.45,29.23,9.57,39.78,1008.32,2041.99,3426.79,3333.15,3616.98,500.09,493.15,3.37,0000 0000 0000 0000 000000
2014-09-20 05:50:50,0.00,0.03,0.00,22.63,26.45,29.16,9.61,39.84,1008.32,2041.99,3426.57,3333.16,3616.96,500.61,493.82,3.41,0000 0000 0000 0000 000000
2014-09-20 05:55:51,0.01,0.04,0.00,22.60,26.45,29.10,9.54,39.89,1008.32,2041.99,3426.09,3333.10,3616.81,500.01,493.53,3.45,0000 0000 0000 0000 000000
2014-09-20 06:00:52,0.01,0.04,0.00,22.56,26.45,29.06,9.53,39.92,1008.31,2041.99,3426.01,3333.03,3616.29,500.39,493.66,3.49,0000 0000 0000 0000 000000
2014-09-20 06:05:53,0.00,0.04,0.00,22.57,26.45,29.08,9.50,39.60,1008.16,2041.99,3426.00,3333.02,3616.04,499.89,493.09,3.53,0000 0000 0000 0000 000000
2014-09-20 06:10:54,0.00,0.04,0.00,22.60,26.45,29.11,9.52,39.79,1008.08,2041.99,3425.99,3333.01,3616.01,500.03,493.15,3.57,0000 0000 0000 0000 000000
2014-09-20 06:15:56,0.00,0.04,0.00,22.62,26.47,29.10,9.55,39.90,1008.05,2041.99,3425.95,3333.00,3616.00,499.80,492.83,3.62,0000 0000 0000 0000 000000
2014-09-20 06:20:57,0.01,0.04,0.00,22.61,26.47,29.10,9.49,39.75,1007.95,2041.99,3425.48,3333.00,3615.98,499.55,492.67,3.66,0000 0000 0000 0000 000000
2014-09-20 06:25:58,0.00,0.04,0.00,22.60,26.47,29.09,9.47,39.70,1007.85,2041.99,3425.10,3333.00,3615.96,500.09,493.31,3.70,0000 0000 0000 0000 000000
2014-09-20 06:30:59,0.01,0.04,0.00,22.64,26.47,29.06,9.48,39.67,1007.84,2041.99,3425.01,3333.00,3615.48,499.72,492.67,3.74,0000 0000 0000 0000 000000
2014-09-20 06:36:00,0.00,0.04,0.00,22.66,26.47,29.12,9.56,39.89,1007.84,2041.99,3425.00,3332.99,3615.10,500.18,493.22,3.78,0000 0000 0000 0000 000000
2014-09-20 06:41:01,0.00,0.04,0.00,22.64,26.47,29.17,9.59,39.70,1007.84,2041.99,3424.98,3332.98,3615.02,500.70,493.64,3.83,0000 0000 0000 0000 000000
2014-09-20 06:46:02,0.00,0.04,0.00,22.59,26.48,29.21,9.50,39.84,1007.83,2041.99,3424.92,3332.96,3615.00,499.68,492.65,3.87,0000 0000 0000 0000 000000
2014-09-20 06:51:04,0.01,0.04,0.00,22.58,26.50,29.13,9.48,39.83,1007.83,2041.99,3424.43,3332.90,3614.99,499.94,492.89,3.91,0000 0000 0000 0000 000000
2014-09-20 06:56:05,0.03,0.04,0.00,22.63,26.50,29.16,9.57,39.84,1007.82,2041.99,3424.05,3332.48,3614.82,500.03,493.05,3.95,0000 0000 0000 0000 000000
2014-09-20 07:01:06,0.01,0.04,0.00,22.62,26.50,29.10,9.50,39.82,1007.81,2041.99,3424.00,3332.05,3614.15,500.36,493.45,3.99,0000 0000 0000 0000 000000
2014-09-20 07:06:07,0.00,0.04,0.00,22.61,26.50,29.02,9.52,39.78,1007.67,2041.98,3423.98,3332.01,3614.01,500.01,493.11,4.03,0000 0000 0000 0000 000000
2014-09-20 07:11:09,0.00,0.04,0.00,22.62,26.51,29.02,9.53,39.85,1007.67,2041.99,3423.96,3332.01,3614.00,500.08,492.79,4.08,0000 0000 0000 0000 000000
2014-09-20 07:16:10,0.00,0.04,0.00,22.62,26.52,29.09,9.54,39.83,1007.60,2041.97,3423.63,3332.00,3614.00,500.43,493.25,4.12,0000 0000 0000 0000 000000
2014-09-20 07:21:10,0.01,0.04,0.00,22.61,26.52,29.16,9.48,39.67,1007.55,2041.98,3423.07,3332.00,3613.92,499.84,492.93,4.16,0000 0000 0000 0000 000000
2014-09-20 07:26:11,0.01,0.04,0.00,22.59,26.52,29.19,9.49,39.88,1007.64,2041.96,3423.00,3332.00,3613.49,500.05,493.07,4.20,0000 0000 0000 0000 000000
2014-09-20 07:31:12,0.00,0.04,0.00,22.57,26.53,29.14,9.51,39.93,1007.48,2041.97,3422.98,3331.98,3613.15,500.10,493.02,4.24,0000 0000 0000 0000 000000
2014-09-20 07:36:13,0.00,0.04,0.00,22.55,26.55,29.08,9.56,39.90,1007.41,2041.97,3422.98,3331.98,3613.03,500.23,493.22,4.29,0000 0000 0000 0000 000000
2014-09-20 07:41:14,0.00,0.04,0.00,22.53,26.55,29.12,9.52,39.83,1007.35,2041.97,3422.80,3331.98,3613.01,500.17,493.19,4.33,0000 0000 0000 0000 000000
2014-09-20 07:46:15,0.01,0.04,0.00,22.52,26.55,29.13,9.57,39.93,1007.35,2041.96,3422.26,3331.88,3612.99,500.23,493.10,4.37,0000 0000 0000 0000 000000
2014-09-20 07:51:16,0.01,0.04,0.00,22.50,26.56,29.16,9.57,39.97,1007.34,2041.95,3422.03,3331.53,3612.96,500.15,493.18,4.41,0000 0000 0000 0000 000000
2014-09-20 07:56:17,0.02,0.04,0.00,22.49,26.57,29.14,9.48,39.92,1007.34,2041.89,3422.00,3331.14,3612.48,499.64,492.64,4.45,0000 0000 0000 0000 000000
2014-09-20 08:01:18,-0.02,0.04,0.00,22.52,26.57,29.18,9.53,39.94,1007.34,2041.75,3421.95,3331.03,3612.06,500.10,492.99,4.49,0000 0000 0000 0000 000000
2014-09-20 08:06:19,0.01,0.04,0.00,22.53,26.57,29.24,9.51,39.83,1007.34,2041.69,3421.39,3331.00,3612.00,499.97,492.81,4.54,0000 0000 0000 0000 000000
2014-09-20 08:11:21,-0.01,0.04,0.00,22.53,26.57,29.24,9.51,39.80,1007.34,2041.66,3421.03,3331.00,3611.99,500.06,493.13,4.58,0000 0000 0000 0000 000000
2014-09-20 08:16:21,-0.01,0.04,0.00,22.54,26.57,29.28,9.53,39.89,1007.31,2041.46,3421.00,3331.00,3611.94,499.86,492.75,4.62,0000 0000 0000 0000 000000
2014-09-20 08:21:22,0.03,0.04,0.00,22.52,26.58,29.30,9.63,39.92,1007.29,2041.68,3420.99,3331.00,3611.84,500.55,493.40,4.66,0000 0000 0000 0000 000000
2014-09-20 08:26:23,0.01,0.04,0.00,22.51,26.59,29.33,9.45,39.91,1007.32,2041.59,3420.93,3330.99,3611.20,499.85,492.78,4.70,0000 0000 0000 0000 000000
2014-09-20 08:31:24,0.02,0.04,0.00,22.54,26.60,29.31,9.54,39.72,1007.30,2041.63,3420.30,3330.98,3611.03,500.33,493.19,4.75,0000 0000 0000 0000 000000
2014-09-20 08:36:26,-0.02,0.05,0.00,22.53,26.60,29.35,9.58,39.72,1007.26,2041.57,3420.08,3330.96,3611.00,499.92,492.75,4.79,0000 0000 0000 0000 000000
2014-09-20 08:41:27,0.00,0.04,0.00,22.52,26.60,29.33,9.55,39.93,1007.02,2041.48,3420.00,3330.87,3610.99,499.99,492.69,4.83,0000 0000 0000 0000 000000
2014-09-20 08:46:28,-0.01,0.04,0.00,22.51,26.60,29.38,9.49,39.93,1006.90,2041.33,3419.98,3330.56,3610.93,499.87,492.64,4.87,0000 0000 0000 0000 000000
2014-09-20 08:51:29,0.02,0.05,0.00,22.48,26.60,29.37,9.58,39.91,1006.88,2041.26,3419.88,3330.17,3610.41,500.08,493.08,4.91,0000 0000 0000 0000 000000
2014-09-20 08:56:30,0.02,0.05,0.00,22.47,26.60,29.40,9.52,39.83,1006.86,2041.22,3419.48,3330.05,3610.08,500.03,492.94,4.95,0000 0000 0000 0000 000000
2014-09-20 09:01:31,0.00,0.05,0.00,22.49,26.60,29.39,9.54,40.02,1006.85,2041.24,3419.10,3330.04,3610.03,499.85,492.70,5.00,0000 0000 0000 0000 000000
2014-09-20 09:06:32,0.01,0.05,0.00,22.48,26.60,29.42,9.54,39.97,1006.85,2041.26,3419.01,3330.02,3610.00,500.28,493.21,5.04,0000 0000 0000 0000 000000
2014-09-20 09:11:33,-0.01,0.05,0.00,22.47,26.60,29.40,9.52,39.87,1006.85,2041.17,3418.98,3330.00,3609.98,500.24,493.18,5.08,0000 0000 0000 0000 000000
2014-09-20 09:16:35,-0.00,0.05,0.00,22.52,26.60,29.38,9.47,39.74,1006.85,2041.14,3418.91,3330.00,3609.86,499.89,492.58,5.12,0000 0000 0000 0000 000000
2014-09-20 09:21:36,0.02,0.05,0.00,22.54,26.60,29.38,9.46,39.77,1006.85,2041.20,3418.41,3330.00,3609.39,499.81,492.49,5.16,0000 0000 0000 0000 000000
2014-09-20 09:26:37,0.00,0.05,0.00,22.52,26.60,29.39,9.51,39.63,1006.82,2041.23,3418.14,3330.00,3609.20,500.01,492.75,5.21,0000 0000 0000 0000 000000
2014-09-20 09:31:37,-0.00,0.05,0.00,22.54,26.60,29.41,9.49,39.65,1006.81,2041.08,3418.00,3329.96,3609.00,500.09,492.67,5.25,0000 0000 0000 0000 000000
2014-09-20 09:36:38,0.00,0.05,0.00,22.59,26.60,29.39,9.46,39.78,1006.77,2041.10,3417.98,3329.91,3608.99,499.77,492.32,5.29,0000 0000 0000 0000 000000
2014-09-20 09:41:39,0.01,0.05,0.00,22.53,26.60,29.39,9.51,39.72,1006.64,2041.22,3417.91,3329.96,3608.98,499.80,492.40,5.33,0000 0000 0000 0000 000000
2014-09-20 09:46:40,0.01,0.05,0.00,22.51,26.58,29.38,9.53,39.74,1006.58,2041.21,3417.54,3329.87,3608.92,500.21,492.74,5.37,0000 0000 0000 0000 000000
2014-09-20 09:51:42,0.02,0.05,0.00,22.55,26.57,29.38,9.49,39.92,1006.44,2041.30,3417.21,3329.75,3608.63,499.80,492.27,5.41,0000 0000 0000 0000 000000
2014-09-20 09:56:43,0.04,0.05,0.00,22.54,26.57,29.37,9.48,39.80,1006.41,2041.46,3417.01,3329.72,3608.18,499.64,492.16,5.46,0000 0000 0000 0000 000000
2014-09-20 10:01:44,0.00,0.05,0.00,22.59,26.57,29.38,9.52,39.79,1006.39,2041.59,3417.00,3329.69,3608.07,500.10,492.43,5.50,0000 0000 0000 0000 000000
2014-09-20 10:06:45,0.02,0.05,0.00,22.60,26.57,29.33,9.56,39.88,1006.38,2041.76,3417.00,3329.70,3608.02,500.15,492.23,5.54,0000 0000 0000 0000 000000
2014-09-20 10:11:46,0.02,0.05,0.00,22.59,26.57,29.33,9.48,39.77,1006.37,2041.90,3416.97,3329.63,3608.00,499.81,492.17,5.58,0000 0000 0000 0000 000000
2014-09-20 10:16:47,0.02,0.05,0.00,22.59,26.56,29.27,9.53,39.80,1006.37,2041.89,3416.41,3329.18,3607.99,500.63,493.02,5.62,0000 0000 0000 0000 000000
2014-09-20 10:21:48,0.01,0.05,0.00,22.62,26.55,29.27,9.62,39.77,1006.36,2041.93,3416.02,3329.08,3607.97,500.40,492.80,5.67,0000 0000 0000 0000 000000
2014-09-20 10:26:49,0.01,0.05,0.00,22.59,26.55,29.29,9.55,39.77,1006.36,2041.94,3416.00,3329.04,3607.70,499.85,492.15,5.71,0000 0000 0000 0000 000000
2014-09-20 10:31:50,0.01,0.06,0.00,22.62,26.54,29.27,9.48,39.64,1006.36,2041.95,3415.99,3329.01,3607.26,499.90,492.14,5.75,0000 0000 0000 0000 000000
2014-09-20 10:36:51,0.00,0.06,0.00,22.69,26.52,29.20,9.52,39.86,1006.34,2041.97,3415.85,3329.00,3607.02,500.22,492.54,5.79,0000 0000 0000 0000 000000
2014-09-20 10:41:52,0.01,0.06,0.00,22.70,26.52,29.17,9.47,39.75,1006.34,2041.97,3415.17,3329.00,3607.00,500.40,492.49,5.83,0000 0000 0000 0000 000000
2014-09-20 10:46:53,0.00,0.06,0.00,22.73,26.52,29.05,9.55,39.87,1006.20,2041.95,3415.01,3329.00,3606.99,500.19,492.26,5.87,0000 0000 0000 0000 000000
2014-09-20 10:51:54,0.00,0.06,0.00,22.71,26.51,29.04,9.39,39.73,1006.04,2041.97,3415.00,3328.98,3606.92,499.62,491.79,5.92,0000 0000 0000 0000 000000
2014-09-20 10:56:56,0.00,0.06,0.00,22.79,26.50,29.02,9.52,39.78,1005.93,2041.98,3414.97,3328.98,3606.61,499.91,491.65,5.96,0000 0000 0000 0000 000000
2014-09-20 11:01:57,0.03,0.06,0.00,22.78,26.50,28.98,9.51,39.80,1005.88,2041.98,3414.33,3328.88,3606.06,500.02,491.85,6.00,0000 0000 0000 0000 000000
2014-09-20 11:06:58,0.02,0.06,0.00,22.72,26.50,28.98,9.47,39.78,1005.88,2041.98,3414.02,3328.48,3606.00,500.13,492.17,6.04,0000 0000 0000 0000 000000
2014-09-20 11:11:59,0.01,0.06,0.00,22.70,26.49,28.97,9.48,39.73,1005.87,2041.99,3413.97,3328.08,3605.98,500.26,492.08,6.08,0000 0000 0000 0000 000000
2014-09-20 11:17:00,0.02,0.06,0.00,22.75,26.48,29.00,9.50,39.54,1005.87,2041.99,3413.49,3328.02,3605.61,500.26,492.13,6.13,0000 0000 0000 0000 000000
2014-09-20 11:22:01,0.01,0.06,0.00,22.72,26.47,28.98,9.49,39.75,1005.83,2041.99,3413.01,3328.00,3605.06,499.86,491.85,6.17,0000 0000 0000 0000 000000
2014-09-20 11:27:02,0.00,0.06,0.00,22.66,26.47,28.97,9.53,39.72,1005.85,2041.99,3412.91,3327.99,3605.00,499.87,491.98,6.21,0000 0000 0000 0000 000000
2014-09-20 11:32:03,0.01,0.06,0.00,22.75,26.47,29.00,9.50,39.83,1005.80,2041.99,3412.41,3327.95,3604.97,500.05,491.80,6.25,0000 0000 0000 0000 000000
2014-09-20 11:37:05,0.01,0.06,0.00,22.78,26.46,28.98,9.45,39.72,1005.79,2041.99,3412.01,3327.78,3604.56,499.75,491.53,6.29,0000 0000 0000 0000 000000
2014-09-20 11:42:06,0.02,0.06,0.00,22.72,26.45,28.98,9.50,39.87,1005.62,2041.99,3411.95,3327.23,3604.05,499.99,491.70,6.33,0000 0000 0000 0000 000000
2014-09-20 11:47:07,0.02,0.06,0.00,22.74,26.45,28.99,9.49,39.69,1005.43,2041.99,3411.23,3327.03,3604.00,500.20,491.75,6.38,0000 0000 0000 0000 000000
2014-09-20 11:52:09,0.00,0.06,0.00,22.74,26.45,29.00,9.43,39.73,1005.40,2041.99,3411.01,3327.00,3603.96,500.35,492.00,6.42,0000 0000 0000 0000 000000
2014-09-20 11:57:10,0.01,0.06,0.00,22.79,26.45,28.99,9.54,39.81,1005.39,2042.00,3410.86,3327.00,3603.43,500.14,491.68,6.46,0000 0000 0000 0000 000000
2014-09-20 12:02:11,0.01,0.07,0.00,22.79,26.44,28.96,9.45,39.84,1005.39,2042.00,3410.11,3326.98,3603.02,499.83,491.48,6.50,0000 0000 0000 0000 000000
2014-09-20 12:07:12,0.00,0.07,0.00,22.75,26.43,28.95,9.47,39.68,1005.39,2042.00,3409.99,3326.89,3602.99,500.11,491.68,6.54,0000 0000 0000 0000 000000
2014-09-20 12:12:13,0.02,0.07,0.00,22.70,26.42,28.97,9.50,39.87,1005.31,2042.00,3409.63,3326.49,3602.86,500.13,491.78,6.59,0000 0000 0000 0000 000000
2014-09-20 12:17:14,0.02,0.07,0.00,22.80,26.42,29.00,9.43,39.75,1005.16,2042.00,3409.04,3326.19,3602.29,499.43,490.95,6.63,0000 0000 0000 0000 000000
2014-09-20 12:22:16,0.00,0.07,0.00,22.82,26.42,28.95,9.49,39.69,1005.03,2042.01,3408.99,3326.02,3602.01,500.26,491.61,6.67,0000 0000 0000 0000 000000
2014-09-20 12:27:16,0.02,0.07,0.00,22.84,26.42,28.91,9.47,39.83,1004.99,2042.01,3408.37,3326.00,3601.93,500.20,491.36,6.71,0000 0000 0000 0000 000000
2014-09-20 12:32:17,0.01,0.07,0.00,22.83,26.42,28.92,9.46,39.81,1004.94,2042.00,3408.00,3325.93,3601.30,499.96,491.07,6.75,0000 0000 0000 0000 000000
2014-09-20 12:37:18,0.02,0.07,0.00,22.83,26.42,28.91,9.34,39.79,1004.91,2042.01,3407.72,3325.58,3601.01,499.78,491.01,6.79,0000 0000 0000 0000 000000
2014-09-20 12:42:19,0.02,0.07,0.00,22.81,26.42,28.96,9.47,39.62,1004.90,2042.00,3407.04,3325.10,3600.96,500.24,491.62,6.84,0000 0000 0000 0000 000000
2014-09-20 12:47:20,0.02,0.07,0.00,22.80,26.42,28.96,9.46,39.76,1004.90,2042.00,3406.60,3325.01,3600.28,499.88,491.15,6.88,0000 0000 0000 0000 000000
2014-09-20 12:52:21,0.01,0.07,0.00,22.82,26.43,28.97,9.42,39.72,1004.89,2042.01,3406.02,3324.99,3600.00,499.62,491.20,6.92,0000 0000 0000 0000 000000
2014-09-20 12:57:22,0.02,0.07,0.00,22.83,26.43,28.95,9.52,39.91,1004.90,2042.03,3405.83,3324.64,3599.87,500.05,491.31,6.96,0000 0000 0000 0000 000000
2014-09-20 13:02:24,0.04,0.08,0.00,22.77,26.44,28.95,9.51,39.88,1004.90,2042.02,3405.05,3324.05,3599.12,499.84,491.45,7.00,0000 0000 0000 0000 000000
2014-09-20 13:07:25,0.01,0.08,0.00,22.80,26.45,28.94,9.52,39.77,1004.90,2042.02,3404.86,3324.00,3598.99,500.01,491.36,7.05,0000 0000 0000 0000 000000